Time,TemperatureF,DewpointF,PressureIn,WindDirection,WindDirectionDegrees,WindSpeedMPH,WindSpeedGustMPH,Humidity,HourlyPrecipIn,Conditions,Clouds,dailyrainin,SoftwareType,DateUTC
2013-03-02 00:00:00,32.6,24.6,29.82,WSW,251,4.0,8.0,72,0.00,,,0.00,VWS V14.01,2013-03-02 05:00:00,
2013-03-02 00:05:00,32.3,24.6,29.82,WSW,246,5.0,14.0,73,0.00,,,0.00,VWS V14.01,2013-03-02 05:05:00,
2013-03-02 00:10:00,32.1,24.4,29.82,NW,315,3.0,14.0,73,0.00,,,0.00,VWS V14.01,2013-03-02 05:10:00,
2013-03-02 00:15:00,32.1,24.4,29.82,NNW,327,0.0,3.0,73,0.00,,,0.00,VWS V14.01,2013-03-02 05:15:00,
2013-03-02 00:20:00,32.1,24.4,29.82,North,5,0.0,6.0,73,0.00,,,0.00,VWS V14.01,2013-03-02 05:20:00,
2013-03-02 00:25:00,32.1,24.4,29.82,North,5,0.0,6.0,73,0.00,,,0.00,VWS V14.01,2013-03-02 05:25:00,
2013-03-02 00:30:00,32.1,24.4,29.82,WSW,248,5.0,5.0,73,0.00,,,0.00,VWS V14.01,2013-03-02 05:30:00,
2013-03-02 00:35:00,32.0,24.3,29.82,West,265,1.0,8.0,73,0.00,,,0.00,VWS V14.01,2013-03-02 05:35:00,
2013-03-02 00:40:00,31.8,23.8,29.82,NW,311,4.0,15.0,72,0.00,,,0.00,VWS V14.01,2013-03-02 05:40:00,
2013-03-02 00:45:00,31.8,23.8,29.81,West,273,2.0,6.0,72,0.00,,,0.00,VWS V14.01,2013-03-02 05:45:00,
2013-03-02 00:50:00,31.7,23.7,29.81,WNW,298,0.0,6.0,72,0.00,,,0.00,VWS V14.01,2013-03-02 05:50:00,
2013-03-02 00:55:00,31.7,23.4,29.81,WNW,284,2.0,8.0,71,0.00,,,0.00,VWS V14.01,2013-03-02 05:55:00,
2013-03-02 01:00:00,31.7,23.4,29.81,WNW,283,0.0,0.0,71,0.00,,,0.00,VWS V14.01,2013-03-02 06:00:00,
2013-03-02 01:05:00,31.7,23.4,29.81,WNW,284,6.0,6.0,71,0.00,,,0.00,VWS V14.01,2013-03-02 06:05:00,
2013-03-02 01:10:00,31.5,22.9,29.81,WNW,301,0.0,6.0,70,0.00,,,0.00,VWS V14.01,2013-03-02 06:10:00,
2013-03-02 01:15:00,31.5,22.9,29.81,WSW,251,0.0,0.0,70,0.00,,,0.00,VWS V14.01,2013-03-02 06:15:00,
2013-03-02 01:20:00,31.5,22.9,29.81,WSW,251,0.0,0.0,70,0.00,,,0.00,VWS V14.01,2013-03-02 06:20:00,
2013-03-02 01:25:00,31.5,22.9,29.81,West,263,0.0,5.0,70,0.00,,,0.00,VWS V14.01,2013-03-02 06:25:00,
2013-03-02 01:30:00,31.5,22.9,29.81,WSW,238,2.0,2.0,70,0.00,,,0.00,VWS V14.01,2013-03-02 06:30:00,
2013-03-02 01:35:00,31.5,22.9,29.81,NW,319,7.0,11.0,70,0.00,,,0.00,VWS V14.01,2013-03-02 06:35:00,
2013-03-02 01:40:00,31.5,22.9,29.81,NNE,12,0.0,11.0,70,0.00,,,0.00,VWS V14.01,2013-03-02 06:40:00,
2013-03-02 01:45:00,31.5,22.5,29.81,North,9,0.0,11.0,69,0.00,,,0.00,VWS V14.01,2013-03-02 06:45:00,
2013-03-02 01:50:00,31.5,22.5,29.81,WSW,251,8.0,8.0,69,0.00,,,0.00,VWS V14.01,2013-03-02 06:50:00,
2013-03-02 01:55:00,31.4,22.4,29.81,WNW,290,2.0,9.0,69,0.00,,,0.00,VWS V14.01,2013-03-02 06:55:00,
2013-03-02 02:00:00,31.4,22.4,29.81,WNW,288,0.0,9.0,69,0.00,,,0.00,VWS V14.01,2013-03-02 07:00:00,
2013-03-02 02:05:00,31.4,22.4,29.81,NNW,340,0.0,8.0,69,0.00,,,0.00,VWS V14.01,2013-03-02 07:05:00,
2013-03-02 02:10:00,31.4,22.8,29.81,West,265,5.0,9.0,70,0.00,,,0.00,VWS V14.01,2013-03-02 07:10:00,
2013-03-02 02:15:00,31.4,22.4,29.81,West,275,0.0,9.0,69,0.00,,,0.00,VWS V14.01,2013-03-02 07:15:00,
2013-03-02 02:20:00,31.4,22.8,29.81,NW,313,5.0,5.0,70,0.00,,,0.00,VWS V14.01,2013-03-02 07:20:00,
2013-03-02 02:25:00,31.4,22.8,29.81,West,273,0.0,8.0,70,0.00,,,0.00,VWS V14.01,2013-03-02 07:25:00,
2013-03-02 02:30:00,31.4,22.8,29.81,WSW,256,0.0,8.0,70,0.00,,,0.00,VWS V14.01,2013-03-02 07:30:00,
2013-03-02 02:35:00,31.4,22.8,29.81,WSW,256,0.0,2.0,70,0.00,,,0.00,VWS V14.01,2013-03-02 07:35:00,
2013-03-02 02:40:00,31.2,22.6,29.81,West,265,2.0,5.0,70,0.00,,,0.00,VWS V14.01,2013-03-02 07:40:00,
2013-03-02 02:45:00,31.2,22.6,29.80,NW,318,0.0,5.0,70,0.00,,,0.00,VWS V14.01,2013-03-02 07:45:00,
2013-03-02 02:50:00,31.2,22.6,29.80,NNW,327,6.0,10.0,70,0.00,,,0.00,VWS V14.01,2013-03-02 07:50:00,
2013-03-02 02:55:00,31.1,22.5,29.80,WNW,282,4.0,10.0,70,0.00,,,0.00,VWS V14.01,2013-03-02 07:55:00,
2013-03-02 03:00:00,31.1,22.5,29.80,West,261,4.0,12.0,70,0.00,,,0.00,VWS V14.01,2013-03-02 08:00:00,
2013-03-02 03:05:00,31.1,22.8,29.80,North,9,0.0,3.0,71,0.00,,,0.00,VWS V14.01,2013-03-02 08:05:00,
2013-03-02 03:10:00,31.1,22.8,29.80,NE,38,0.0,3.0,71,0.00,,,0.00,VWS V14.01,2013-03-02 08:10:00,
2013-03-02 03:15:00,30.9,22.3,29.80,West,259,3.0,7.0,70,0.00,,,0.00,VWS V14.01,2013-03-02 08:15:00,
2013-03-02 03:20:00,30.9,22.3,29.80,NNE,13,0.0,8.0,70,0.00,,,0.00,VWS V14.01,2013-03-02 08:20:00,
2013-03-02 03:25:00,30.8,22.2,29.80,WNW,302,0.0,8.0,70,0.00,,,0.00,VWS V14.01,2013-03-02 08:25:00,
2013-03-02 03:30:00,30.6,22.0,29.80,West,271,0.0,8.0,70,0.00,,,0.00,VWS V14.01,2013-03-02 08:30:00,
2013-03-02 03:35:00,30.5,22.2,29.80,WNW,285,2.0,6.0,71,0.00,,,0.00,VWS V14.01,2013-03-02 08:35:00,
2013-03-02 03:40:00,30.5,22.2,29.80,West,273,0.0,7.0,71,0.00,,,0.00,VWS V14.01,2013-03-02 08:40:00,
2013-03-02 03:45:00,30.3,22.4,29.81,SW,236,4.0,7.0,72,0.00,,,0.00,VWS V14.01,2013-03-02 08:45:00,
2013-03-02 03:50:00,30.3,22.4,29.81,NNW,339,2.0,6.0,72,0.00,,,0.00,VWS V14.01,2013-03-02 08:50:00,
2013-03-02 03:55:00,30.3,22.0,29.81,West,278,3.0,7.0,71,0.00,,,0.00,VWS V14.01,2013-03-02 08:55:00,
2013-03-02 04:00:00,30.2,21.9,29.81,NNE,33,0.0,9.0,71,0.00,,,0.00,VWS V14.01,2013-03-02 09:00:00,
2013-03-02 04:05:00,30.0,21.8,29.81,NNW,346,0.0,6.0,71,0.00,,,0.00,VWS V14.01,2013-03-02 09:05:00,
2013-03-02 04:10:00,30.0,21.8,29.81,West,271,0.0,6.0,71,0.00,,,0.00,VWS V14.01,2013-03-02 09:10:00,
2013-03-02 04:15:00,29.9,21.7,29.81,WNW,284,5.0,7.0,71,0.00,,,0.00,VWS V14.01,2013-03-02 09:15:00,
2013-03-02 04:20:00,29.7,21.5,29.81,West,271,0.0,7.0,71,0.00,,,0.00,VWS V14.01,2013-03-02 09:20:00,
2013-03-02 04:25:00,29.7,21.5,29.81,West,267,1.0,7.0,71,0.00,,,0.00,VWS V14.01,2013-03-02 09:25:00,
2013-03-02 04:30:00,29.6,21.7,29.81,SSW,212,0.0,8.0,72,0.00,,,0.00,VWS V14.01,2013-03-02 09:30:00,
2013-03-02 04:35:00,29.4,21.5,29.81,WSW,253,5.0,7.0,72,0.00,,,0.00,VWS V14.01,2013-03-02 09:35:00,
2013-03-02 04:40:00,29.4,21.2,29.81,WSW,256,2.0,7.0,71,0.00,,,0.00,VWS V14.01,2013-03-02 09:40:00,
2013-03-02 04:45:00,29.3,21.4,29.81,WSW,253,0.0,7.0,72,0.00,,,0.00,VWS V14.01,2013-03-02 09:45:00,
2013-03-02 04:50:00,29.3,21.4,29.81,WNW,299,1.0,5.0,72,0.00,,,0.00,VWS V14.01,2013-03-02 09:50:00,
2013-03-02 04:55:00,29.3,21.4,29.81,West,266,5.0,6.0,72,0.00,,,0.00,VWS V14.01,2013-03-02 09:55:00,
2013-03-02 05:00:00,29.2,21.3,29.81,West,266,4.0,7.0,72,0.00,,,0.00,VWS V14.01,2013-03-02 10:00:00,
2013-03-02 05:05:00,29.2,21.3,29.81,West,264,1.0,6.0,72,0.00,,,0.00,VWS V14.01,2013-03-02 10:05:00,
2013-03-02 05:10:00,29.2,21.3,29.81,West,269,0.0,6.0,72,0.00,,,0.00,VWS V14.01,2013-03-02 10:10:00,
2013-03-02 05:15:00,29.0,21.1,29.80,West,262,0.0,6.0,72,0.00,,,0.00,VWS V14.01,2013-03-02 10:15:00,
2013-03-02 05:20:00,29.0,21.1,29.80,WNW,299,0.0,4.0,72,0.00,,,0.00,VWS V14.01,2013-03-02 10:20:00,
2013-03-02 05:24:00,29.0,21.1,29.80,WNW,299,0.0,4.0,72,0.00,,,0.00,VWS V14.01,2013-03-02 10:24:00,
2013-03-02 05:29:00,29.0,21.1,29.80,NW,324,0.0,4.0,72,0.00,,,0.00,VWS V14.01,2013-03-02 10:29:00,
2013-03-02 05:30:00,29.0,21.1,29.80,NW,324,0.0,4.0,72,0.00,,,0.00,VWS V14.01,2013-03-02 10:30:00,
2013-03-02 05:35:00,28.9,21.0,29.80,NW,324,0.0,0.0,72,0.00,,,0.00,VWS V14.01,2013-03-02 10:35:00,
2013-03-02 05:40:00,29.0,21.1,29.80,WNW,299,0.0,5.0,72,0.00,,,0.00,VWS V14.01,2013-03-02 10:40:00,
2013-03-02 05:45:00,29.0,21.1,29.81,NNW,343,0.0,5.0,72,0.00,,,0.00,VWS V14.01,2013-03-02 10:45:00,
2013-03-02 05:50:00,29.2,21.3,29.81,NNW,343,0.0,2.0,72,0.00,,,0.00,VWS V14.01,2013-03-02 10:50:00,
2013-03-02 05:55:00,29.2,21.3,29.81,WSW,244,0.0,5.0,72,0.00,,,0.00,VWS V14.01,2013-03-02 10:55:00,
2013-03-02 06:00:00,29.2,21.3,29.80,WSW,244,0.0,5.0,72,0.00,,,0.00,VWS V14.01,2013-03-02 11:00:00,
2013-03-02 06:05:00,29.2,21.3,29.80,WSW,244,3.0,3.0,72,0.00,,,0.00,VWS V14.01,2013-03-02 11:05:00,
2013-03-02 06:10:00,29.2,21.3,29.80,NW,324,0.0,5.0,72,0.00,,,0.00,VWS V14.01,2013-03-02 11:10:00,
2013-03-02 06:15:00,29.2,21.0,29.81,WNW,286,0.0,5.0,71,0.00,,,0.00,VWS V14.01,2013-03-02 11:15:00,
2013-03-02 06:20:00,29.2,21.3,29.81,NW,314,0.0,4.0,72,0.00,,,0.00,VWS V14.01,2013-03-02 11:20:00,
2013-03-02 06:25:00,29.2,21.3,29.81,NW,314,0.0,4.0,72,0.00,,,0.00,VWS V14.01,2013-03-02 11:25:00,
2013-03-02 06:30:00,29.2,21.3,29.81,NW,314,0.0,4.0,72,0.00,,,0.00,VWS V14.01,2013-03-02 11:30:00,
2013-03-02 06:35:00,29.2,21.0,29.81,NW,314,0.0,0.0,71,0.00,,,0.00,VWS V14.01,2013-03-02 11:35:00,
2013-03-02 06:40:00,29.2,21.3,29.81,NW,314,0.0,0.0,72,0.00,,,0.00,VWS V14.01,2013-03-02 11:40:00,
2013-03-02 06:45:00,29.2,21.3,29.81,NW,314,1.0,2.0,72,0.00,,,0.00,VWS V14.01,2013-03-02 11:45:00,
2013-03-02 06:50:00,29.3,21.4,29.81,NW,314,0.0,1.0,72,0.00,,,0.00,VWS V14.01,2013-03-02 11:50:00,
2013-03-02 06:55:00,29.3,21.4,29.81,NW,314,0.0,1.0,72,0.00,,,0.00,VWS V14.01,2013-03-02 11:55:00,
2013-03-02 07:00:00,29.3,21.1,29.81,NW,314,0.0,2.0,71,0.00,,,0.00,VWS V14.01,2013-03-02 12:00:00,
2013-03-02 07:05:00,29.4,21.5,29.81,NE,45,0.0,5.0,72,0.00,,,0.00,VWS V14.01,2013-03-02 12:05:00,
2013-03-02 07:10:00,29.4,21.2,29.81,NE,44,0.0,5.0,71,0.00,,,0.00,VWS V14.01,2013-03-02 12:10:00,
2013-03-02 07:15:00,29.4,21.2,29.82,NE,43,0.0,5.0,71,0.00,,,0.00,VWS V14.01,2013-03-02 12:15:00,
2013-03-02 07:20:00,29.4,21.2,29.82,NE,43,0.0,1.0,71,0.00,,,0.00,VWS V14.01,2013-03-02 12:20:00,
2013-03-02 07:25:00,29.6,21.4,29.82,NE,42,0.0,5.0,71,0.00,,,0.00,VWS V14.01,2013-03-02 12:25:00,
2013-03-02 07:30:00,29.6,21.4,29.81,NE,42,0.0,5.0,71,0.00,,,0.00,VWS V14.01,2013-03-02 12:30:00,
2013-03-02 07:35:00,29.6,21.4,29.81,NE,42,0.0,2.0,71,0.00,,,0.00,VWS V14.01,2013-03-02 12:35:00,
2013-03-02 07:40:00,29.7,21.5,29.81,North,360,0.0,5.0,71,0.00,,,0.00,VWS V14.01,2013-03-02 12:40:00,
2013-03-02 07:45:00,29.7,21.5,29.82,North,360,0.0,5.0,71,0.00,,,0.00,VWS V14.01,2013-03-02 12:45:00,
2013-03-02 07:50:00,29.9,21.7,29.82,North,360,0.0,2.0,71,0.00,,,0.00,VWS V14.01,2013-03-02 12:50:00,
2013-03-02 07:55:00,29.9,21.7,29.82,North,360,4.0,4.0,71,0.00,,,0.00,VWS V14.01,2013-03-02 12:55:00,
2013-03-02 08:00:00,29.9,21.7,29.82,North,350,0.0,5.0,71,0.00,,,0.00,VWS V14.01,2013-03-02 13:00:00,
2013-03-02 08:05:00,30.0,21.8,29.82,NNW,348,0.0,5.0,71,0.00,,,0.00,VWS V14.01,2013-03-02 13:05:00,
2013-03-02 08:10:00,30.0,21.8,29.82,WNW,288,0.0,7.0,71,0.00,,,0.00,VWS V14.01,2013-03-02 13:10:00,
2013-03-02 08:15:00,30.0,21.4,29.83,NW,321,0.0,7.0,70,0.00,,,0.00,VWS V14.01,2013-03-02 13:15:00,
2013-03-02 08:20:00,30.2,21.9,29.83,NW,317,0.0,4.0,71,0.00,,,0.00,VWS V14.01,2013-03-02 13:20:00,
2013-03-02 08:25:00,30.2,21.6,29.83,NW,317,0.0,4.0,70,0.00,,,0.00,VWS V14.01,2013-03-02 13:25:00,
2013-03-02 08:30:00,30.3,21.7,29.82,NW,312,0.0,4.0,70,0.00,,,0.00,VWS V14.01,2013-03-02 13:30:00,
2013-03-02 08:35:00,30.5,21.9,29.82,West,262,1.0,6.0,70,0.00,,,0.00,VWS V14.01,2013-03-02 13:35:00,
2013-03-02 08:39:00,30.5,21.9,29.82,NW,319,0.0,6.0,70,0.00,,,0.00,VWS V14.01,2013-03-02 13:39:00,
2013-03-02 08:44:00,30.6,22.0,29.82,West,269,0.0,6.0,70,0.00,,,0.00,VWS V14.01,2013-03-02 13:44:00,
2013-03-02 08:45:00,30.6,22.0,29.82,NW,311,0.0,6.0,70,0.00,,,0.00,VWS V14.01,2013-03-02 13:45:00,
2013-03-02 08:49:00,30.8,22.2,29.82,WNW,288,4.0,5.0,70,0.00,,,0.00,VWS V14.01,2013-03-02 13:49:00,
2013-03-02 08:54:00,30.9,22.3,29.82,WNW,289,0.0,5.0,70,0.00,,,0.00,VWS V14.01,2013-03-02 13:54:00,
2013-03-02 08:59:00,30.9,22.3,29.82,WNW,288,0.0,5.0,70,0.00,,,0.00,VWS V14.01,2013-03-02 13:59:00,
2013-03-02 09:00:00,31.1,22.5,29.82,WNW,288,0.0,5.0,70,0.00,,,0.00,VWS V14.01,2013-03-02 14:00:00,
2013-03-02 09:04:00,31.2,22.6,29.82,WNW,289,0.0,0.0,70,0.00,,,0.00,VWS V14.01,2013-03-02 14:04:00,
2013-03-02 09:09:00,31.4,22.4,29.82,NE,54,5.0,7.0,69,0.00,,,0.00,VWS V14.01,2013-03-02 14:09:00,
2013-03-02 09:14:00,31.4,22.4,29.81,NNE,28,1.0,7.0,69,0.00,,,0.00,VWS V14.01,2013-03-02 14:14:00,
2013-03-02 09:15:00,31.4,22.1,29.81,NNE,28,1.0,7.0,68,0.00,,,0.00,VWS V14.01,2013-03-02 14:15:00,
2013-03-02 09:19:00,31.4,22.1,29.81,NNE,33,1.0,8.0,68,0.00,,,0.00,VWS V14.01,2013-03-02 14:19:00,
2013-03-02 09:24:00,31.4,22.1,29.81,NE,49,2.0,12.0,68,0.00,,,0.00,VWS V14.01,2013-03-02 14:24:00,
2013-03-02 09:29:00,31.4,22.1,29.81,ENE,57,6.0,12.0,68,0.00,,,0.00,VWS V14.01,2013-03-02 14:29:00,
2013-03-02 09:30:00,31.4,22.1,29.81,ENE,58,4.0,12.0,68,0.00,,,0.00,VWS V14.01,2013-03-02 14:30:00,
2013-03-02 09:34:00,31.5,22.2,29.81,NE,45,2.0,8.0,68,0.00,,,0.00,VWS V14.01,2013-03-02 14:34:00,
2013-03-02 09:39:00,31.5,22.2,29.81,West,263,4.0,8.0,68,0.00,,,0.00,VWS V14.01,2013-03-02 14:39:00,
2013-03-02 09:44:00,31.8,22.5,29.80,NE,51,2.0,10.0,68,0.00,,,0.00,VWS V14.01,2013-03-02 14:44:00,
2013-03-02 09:45:00,31.8,22.5,29.80,NNE,17,9.0,10.0,68,0.00,,,0.00,VWS V14.01,2013-03-02 14:45:00,
2013-03-02 09:49:00,31.8,22.5,29.80,NE,51,7.0,10.0,68,0.00,,,0.00,VWS V14.01,2013-03-02 14:49:00,
2013-03-02 09:54:00,32.0,22.6,29.80,NE,39,7.0,10.0,68,0.00,,,0.00,VWS V14.01,2013-03-02 14:54:00,
2013-03-02 09:59:00,32.0,22.3,29.80,NE,39,0.0,14.0,67,0.00,,,0.00,VWS V14.01,2013-03-02 14:59:00,
2013-03-02 10:00:00,32.1,22.4,29.80,NE,44,1.0,14.0,67,0.00,,,0.00,VWS V14.01,2013-03-02 15:00:00,
2013-03-02 10:04:00,32.3,22.9,29.80,NE,45,6.0,7.0,68,0.00,,,0.00,VWS V14.01,2013-03-02 15:04:00,
2013-03-02 10:09:00,32.4,22.7,29.80,NE,42,2.0,8.0,67,0.00,,,0.00,VWS V14.01,2013-03-02 15:09:00,
2013-03-02 10:14:00,32.4,22.7,29.80,NE,34,6.0,8.0,67,0.00,,,0.00,VWS V14.01,2013-03-02 15:14:00,
2013-03-02 10:15:00,32.4,22.7,29.80,North,5,4.0,10.0,67,0.00,,,0.00,VWS V14.01,2013-03-02 15:15:00,
2013-03-02 10:19:00,32.6,22.5,29.80,North,350,0.0,5.0,66,0.00,,,0.00,VWS V14.01,2013-03-02 15:19:00,
2013-03-02 10:24:00,32.7,22.6,29.80,ENE,57,0.0,7.0,66,0.00,,,0.00,VWS V14.01,2013-03-02 15:24:00,
2013-03-02 10:29:00,33.0,22.5,29.80,NNE,17,2.0,7.0,65,0.00,,,0.00,VWS V14.01,2013-03-02 15:29:00,
2013-03-02 10:30:00,33.0,22.5,29.80,WSW,251,5.0,7.0,65,0.00,,,0.00,VWS V14.01,2013-03-02 15:30:00,
2013-03-02 10:34:00,33.1,22.6,29.80,NE,40,3.0,5.0,65,0.00,,,0.00,VWS V14.01,2013-03-02 15:34:00,
2013-03-02 10:39:00,33.1,22.3,29.80,NE,55,7.0,12.0,64,0.00,,,0.00,VWS V14.01,2013-03-02 15:39:00,
2013-03-02 10:44:00,33.3,22.8,29.79,NNE,26,4.0,12.0,65,0.00,,,0.00,VWS V14.01,2013-03-02 15:44:00,
2013-03-02 10:45:00,33.3,22.5,29.79,West,264,0.0,12.0,64,0.00,,,0.00,VWS V14.01,2013-03-02 15:45:00,
2013-03-02 10:49:00,33.3,22.5,29.79,ENE,74,4.0,9.0,64,0.00,,,0.00,VWS V14.01,2013-03-02 15:49:00,
2013-03-02 10:54:00,33.4,22.5,29.79,WSW,240,5.0,9.0,64,0.00,,,0.00,VWS V14.01,2013-03-02 15:54:00,
2013-03-02 10:59:00,33.4,22.5,29.79,ENE,60,0.0,9.0,64,0.00,,,0.00,VWS V14.01,2013-03-02 15:59:00,
2013-03-02 11:00:00,33.4,22.5,29.79,ENE,60,0.0,9.0,64,0.00,,,0.00,VWS V14.01,2013-03-02 16:00:00,
2013-03-02 11:04:00,33.4,22.2,29.79,WNW,290,0.0,8.0,63,0.00,,,0.00,VWS V14.01,2013-03-02 16:04:00,
2013-03-02 11:09:00,33.6,22.7,29.79,ENE,70,0.0,8.0,64,0.00,,,0.00,VWS V14.01,2013-03-02 16:09:00,
2013-03-02 11:14:00,33.7,22.5,29.79,WNW,286,0.0,8.0,63,0.00,,,0.00,VWS V14.01,2013-03-02 16:14:00,
2013-03-02 11:15:00,33.7,22.8,29.79,North,9,2.0,8.0,64,0.00,,,0.00,VWS V14.01,2013-03-02 16:15:00,
2013-03-02 11:19:00,33.9,22.6,29.79,NW,316,1.0,8.0,63,0.00,,,0.00,VWS V14.01,2013-03-02 16:19:00,
2013-03-02 11:24:00,34.0,22.7,29.79,NE,43,3.0,9.0,63,0.00,,,0.00,VWS V14.01,2013-03-02 16:24:00,
2013-03-02 11:29:00,34.0,22.4,29.79,NNE,33,2.0,10.0,62,0.00,,,0.00,VWS V14.01,2013-03-02 16:29:00,
2013-03-02 11:30:00,34.0,22.4,29.79,NNE,33,0.0,10.0,62,0.00,,,0.00,VWS V14.01,2013-03-02 16:30:00,
2013-03-02 11:34:00,34.2,22.5,29.79,NE,53,8.0,11.0,62,0.00,,,0.00,VWS V14.01,2013-03-02 16:34:00,
2013-03-02 11:39:00,34.0,22.4,29.79,NNE,29,8.0,13.0,62,0.00,,,0.00,VWS V14.01,2013-03-02 16:39:00,
2013-03-02 11:44:00,34.0,22.4,29.78,NNW,348,0.0,13.0,62,0.00,,,0.00,VWS V14.01,2013-03-02 16:44:00,
2013-03-02 11:45:00,34.2,22.6,29.78,NNE,19,2.0,13.0,62,0.00,,,0.00,VWS V14.01,2013-03-02 16:45:00,
2013-03-02 11:49:00,34.3,23.0,29.78,NNE,24,0.0,9.0,63,0.00,,,0.00,VWS V14.01,2013-03-02 16:49:00,
2013-03-02 11:54:00,34.6,22.5,29.78,NNE,29,0.0,12.0,61,0.00,,,0.00,VWS V14.01,2013-03-02 16:54:00,
2013-03-02 11:59:00,34.5,22.5,29.78,West,273,7.0,12.0,61,0.00,,,0.00,VWS V14.01,2013-03-02 16:59:00,
2013-03-02 12:00:00,34.3,22.3,29.78,NE,43,4.0,12.0,61,0.00,,,0.00,VWS V14.01,2013-03-02 17:00:00,
2013-03-02 12:04:00,34.6,22.5,29.78,NE,49,0.0,6.0,61,0.00,,,0.00,VWS V14.01,2013-03-02 17:04:00,
2013-03-02 12:09:00,34.9,22.4,29.78,NE,50,0.0,6.0,60,0.00,,,0.00,VWS V14.01,2013-03-02 17:09:00,
2013-03-02 12:14:00,35.1,22.6,29.77,West,261,7.0,8.0,60,0.00,,,0.00,VWS V14.01,2013-03-02 17:14:00,
2013-03-02 12:15:00,34.9,22.4,29.77,NW,309,5.0,9.0,60,0.00,,,0.00,VWS V14.01,2013-03-02 17:15:00,
2013-03-02 12:19:00,35.1,23.0,29.77,WNW,299,3.0,10.0,61,0.00,,,0.00,VWS V14.01,2013-03-02 17:19:00,
2013-03-02 12:24:00,34.6,22.2,29.77,West,280,1.0,10.0,60,0.00,,,0.00,VWS V14.01,2013-03-02 17:24:00,
2013-03-02 12:29:00,34.6,22.5,29.77,WNW,292,0.0,10.0,61,0.00,,,0.00,VWS V14.01,2013-03-02 17:29:00,
2013-03-02 12:30:00,34.6,22.5,29.77,ENE,74,0.0,10.0,61,0.00,,,0.00,VWS V14.01,2013-03-02 17:30:00,
2013-03-02 12:34:00,34.6,22.2,29.77,West,278,4.0,9.0,60,0.00,,,0.00,VWS V14.01,2013-03-02 17:34:00,
2013-03-02 12:39:00,34.5,22.5,29.77,WNW,283,2.0,9.0,61,0.00,,,0.00,VWS V14.01,2013-03-02 17:39:00,
2013-03-02 12:44:00,34.5,22.5,29.77,WNW,299,0.0,9.0,61,0.00,,,0.00,VWS V14.01,2013-03-02 17:44:00,
2013-03-02 12:45:00,34.5,22.5,29.77,West,261,6.0,9.0,61,0.00,,,0.00,VWS V14.01,2013-03-02 17:45:00,
2013-03-02 12:49:00,34.3,22.3,29.77,NW,317,2.0,7.0,61,0.00,,,0.00,VWS V14.01,2013-03-02 17:49:00,
2013-03-02 12:54:00,34.5,22.1,29.77,WSW,249,0.0,11.0,60,0.00,,,0.00,VWS V14.01,2013-03-02 17:54:00,
2013-03-02 12:59:00,34.3,22.3,29.76,West,272,0.0,12.0,61,0.00,,,0.00,VWS V14.01,2013-03-02 17:59:00,
2013-03-02 13:00:00,34.5,22.5,29.76,West,272,0.0,12.0,61,0.00,,,0.00,VWS V14.01,2013-03-02 18:00:00,
2013-03-02 13:04:00,34.6,22.5,29.76,NNW,332,1.0,7.0,61,0.00,,,0.00,VWS V14.01,2013-03-02 18:04:00,
2013-03-02 13:09:00,34.6,22.9,29.76,NW,313,8.0,9.0,62,0.00,,,0.00,VWS V14.01,2013-03-02 18:09:00,
2013-03-02 13:14:00,34.3,23.0,29.76,NNE,26,0.0,14.0,63,0.00,,,0.00,VWS V14.01,2013-03-02 18:14:00,
2013-03-02 13:15:00,34.3,23.4,29.76,WSW,248,4.0,14.0,64,0.00,,,0.00,VWS V14.01,2013-03-02 18:15:00,
2013-03-02 13:19:00,34.2,22.9,29.76,West,274,9.0,9.0,63,0.00,,,0.00,VWS V14.01,2013-03-02 18:19:00,
2013-03-02 13:24:00,34.5,22.8,29.76,WNW,296,5.0,10.0,62,0.00,,,0.00,VWS V14.01,2013-03-02 18:24:00,
2013-03-02 13:29:00,35.1,23.4,29.76,NNW,342,0.0,10.0,62,0.00,,,0.00,VWS V14.01,2013-03-02 18:29:00,
2013-03-02 13:30:00,35.1,23.8,29.76,West,269,4.0,10.0,63,0.00,,,0.00,VWS V14.01,2013-03-02 18:30:00,
2013-03-02 13:34:00,34.9,23.2,29.76,West,270,10.0,10.0,62,0.00,,,0.00,VWS V14.01,2013-03-02 18:34:00,
2013-03-02 13:39:00,35.1,23.4,29.76,NE,42,0.0,10.0,62,0.00,,,0.00,VWS V14.01,2013-03-02 18:39:00,
2013-03-02 13:44:00,34.9,23.6,29.76,WNW,302,5.0,10.0,63,0.00,,,0.00,VWS V14.01,2013-03-02 18:44:00,
2013-03-02 13:45:00,35.1,23.4,29.76,WNW,302,0.0,10.0,62,0.00,,,0.00,VWS V14.01,2013-03-02 18:45:00,
2013-03-02 13:49:00,35.2,23.1,29.76,NE,48,6.0,9.0,61,0.00,,,0.00,VWS V14.01,2013-03-02 18:49:00,
2013-03-02 13:54:00,34.9,23.6,29.76,West,262,6.0,9.0,63,0.00,,,0.00,VWS V14.01,2013-03-02 18:54:00,
2013-03-02 13:59:00,34.8,23.5,29.75,North,355,0.0,9.0,63,0.00,,,0.00,VWS V14.01,2013-03-02 18:59:00,
2013-03-02 14:00:00,34.8,23.9,29.75,NNW,347,0.0,9.0,64,0.00,,,0.00,VWS V14.01,2013-03-02 19:00:00,
2013-03-02 14:04:00,34.8,23.1,29.75,NNW,327,0.0,7.0,62,0.00,,,0.00,VWS V14.01,2013-03-02 19:04:00,
2013-03-02 14:09:00,34.9,23.2,29.75,NNW,335,5.0,9.0,62,0.00,,,0.00,VWS V14.01,2013-03-02 19:09:00,
2013-03-02 14:14:00,34.8,23.1,29.75,SW,223,6.0,12.0,62,0.00,,,0.00,VWS V14.01,2013-03-02 19:14:00,
2013-03-02 14:15:00,34.8,23.5,29.75,West,261,9.0,12.0,63,0.00,,,0.00,VWS V14.01,2013-03-02 19:15:00,
2013-03-02 14:19:00,34.5,22.8,29.75,NNE,30,5.0,11.0,62,0.00,,,0.00,VWS V14.01,2013-03-02 19:19:00,
2013-03-02 14:24:00,34.5,23.2,29.75,NE,40,0.0,11.0,63,0.00,,,0.00,VWS V14.01,2013-03-02 19:24:00,
2013-03-02 14:29:00,34.6,22.9,29.75,NNE,32,0.0,11.0,62,0.00,,,0.00,VWS V14.01,2013-03-02 19:29:00,
2013-03-02 14:30:00,34.6,22.9,29.75,WNW,300,5.0,11.0,62,0.00,,,0.00,VWS V14.01,2013-03-02 19:30:00,
2013-03-02 14:34:00,34.6,22.9,29.75,NNE,33,4.0,12.0,62,0.00,,,0.00,VWS V14.01,2013-03-02 19:34:00,
2013-03-02 14:39:00,34.6,22.5,29.75,WSW,253,7.0,13.0,61,0.00,,,0.00,VWS V14.01,2013-03-02 19:39:00,
2013-03-02 14:44:00,34.3,22.3,29.75,NW,322,5.0,13.0,61,0.00,,,0.00,VWS V14.01,2013-03-02 19:44:00,
2013-03-02 14:45:00,34.3,22.3,29.75,SW,234,5.0,13.0,61,0.00,,,0.00,VWS V14.01,2013-03-02 19:45:00,
2013-03-02 14:49:00,34.5,22.5,29.75,NNE,21,1.0,8.0,61,0.00,,,0.00,VWS V14.01,2013-03-02 19:49:00,
2013-03-02 14:54:00,34.6,22.2,29.75,NE,51,6.0,8.0,60,0.00,,,0.00,VWS V14.01,2013-03-02 19:54:00,
2013-03-02 14:59:00,34.8,22.7,29.75,NE,34,7.0,8.0,61,0.00,,,0.00,VWS V14.01,2013-03-02 19:59:00,
2013-03-02 15:00:00,34.8,22.3,29.75,NW,320,0.0,8.0,60,0.00,,,0.00,VWS V14.01,2013-03-02 20:00:00,
2013-03-02 15:04:00,34.8,22.3,29.75,North,5,3.0,9.0,60,0.00,,,0.00,VWS V14.01,2013-03-02 20:04:00,
2013-03-02 15:09:00,34.8,22.7,29.75,WNW,294,5.0,9.0,61,0.00,,,0.00,VWS V14.01,2013-03-02 20:09:00,
2013-03-02 15:14:00,34.8,22.7,29.75,WSW,252,4.0,9.0,61,0.00,,,0.00,VWS V14.01,2013-03-02 20:14:00,
2013-03-02 15:15:00,34.8,22.7,29.75,WSW,252,6.0,9.0,61,0.00,,,0.00,VWS V14.01,2013-03-02 20:15:00,
2013-03-02 15:19:00,34.6,22.5,29.75,WSW,254,0.0,11.0,61,0.00,,,0.00,VWS V14.01,2013-03-02 20:19:00,
2013-03-02 15:24:00,34.6,22.5,29.75,West,263,0.0,11.0,61,0.00,,,0.00,VWS V14.01,2013-03-02 20:24:00,
2013-03-02 15:29:00,34.5,22.5,29.75,NNW,336,1.0,11.0,61,0.00,,,0.00,VWS V14.01,2013-03-02 20:29:00,
2013-03-02 15:30:00,34.5,22.5,29.75,North,355,0.0,11.0,61,0.00,,,0.00,VWS V14.01,2013-03-02 20:30:00,
2013-03-02 15:34:00,34.5,22.5,29.75,WSW,240,0.0,3.0,61,0.00,,,0.00,VWS V14.01,2013-03-02 20:34:00,
2013-03-02 15:39:00,34.5,22.5,29.75,SW,224,6.0,9.0,61,0.00,,,0.00,VWS V14.01,2013-03-02 20:39:00,
2013-03-02 15:44:00,34.3,22.6,29.75,WSW,257,7.0,10.0,62,0.00,,,0.00,VWS V14.01,2013-03-02 20:44:00,
2013-03-02 15:45:00,34.2,22.6,29.75,NNW,341,0.0,10.0,62,0.00,,,0.00,VWS V14.01,2013-03-02 20:45:00,
2013-03-02 15:49:00,34.2,22.5,29.75,WSW,254,6.0,9.0,62,0.00,,,0.00,VWS V14.01,2013-03-02 20:49:00,
2013-03-02 15:54:00,34.0,22.0,29.75,WNW,285,12.0,12.0,61,0.00,,,0.00,VWS V14.01,2013-03-02 20:54:00,
2013-03-02 15:59:00,33.9,21.9,29.75,West,269,5.0,12.0,61,0.00,,,0.00,VWS V14.01,2013-03-02 20:59:00,
2013-03-02 16:00:00,33.9,21.9,29.75,West,273,5.0,12.0,61,0.00,,,0.00,VWS V14.01,2013-03-02 21:00:00,
2013-03-02 16:04:00,33.9,21.9,29.75,WNW,283,7.0,10.0,61,0.00,,,0.00,VWS V14.01,2013-03-02 21:04:00,
2013-03-02 16:09:00,33.9,22.3,29.75,WNW,294,0.0,10.0,62,0.00,,,0.00,VWS V14.01,2013-03-02 21:09:00,
2013-03-02 16:14:00,33.9,22.3,29.75,WNW,286,4.0,10.0,62,0.00,,,0.00,VWS V14.01,2013-03-02 21:14:00,
2013-03-02 16:15:00,33.9,22.3,29.75,NNE,15,0.0,10.0,62,0.00,,,0.00,VWS V14.01,2013-03-02 21:15:00,
2013-03-02 16:19:00,33.9,22.3,29.75,NE,34,8.0,12.0,62,0.00,,,0.00,VWS V14.01,2013-03-02 21:19:00,
2013-03-02 16:24:00,33.9,22.3,29.75,NE,53,0.0,12.0,62,0.00,,,0.00,VWS V14.01,2013-03-02 21:24:00,
2013-03-02 16:29:00,34.0,22.0,29.75,WSW,243,6.0,12.0,61,0.00,,,0.00,VWS V14.01,2013-03-02 21:29:00,
2013-03-02 16:30:00,34.0,22.0,29.75,WSW,243,0.0,12.0,61,0.00,,,0.00,VWS V14.01,2013-03-02 21:30:00,
2013-03-02 16:34:00,33.9,22.3,29.75,WNW,296,4.0,6.0,62,0.00,,,0.00,VWS V14.01,2013-03-02 21:34:00,
2013-03-02 16:39:00,33.9,22.3,29.75,SSW,208,0.0,6.0,62,0.00,,,0.00,VWS V14.01,2013-03-02 21:39:00,
2013-03-02 16:44:00,33.7,22.1,29.75,NNE,30,0.0,9.0,62,0.00,,,0.00,VWS V14.01,2013-03-02 21:44:00,
2013-03-02 16:45:00,33.7,22.1,29.75,NNE,30,0.0,9.0,62,0.00,,,0.00,VWS V14.01,2013-03-02 21:45:00,
2013-03-02 16:49:00,33.7,22.5,29.75,ENE,64,6.0,13.0,63,0.00,,,0.00,VWS V14.01,2013-03-02 21:49:00,
2013-03-02 16:54:00,33.7,22.5,29.75,West,260,4.0,13.0,63,0.00,,,0.00,VWS V14.01,2013-03-02 21:54:00,
2013-03-02 16:59:00,33.4,22.5,29.75,WSW,246,6.0,13.0,64,0.00,,,0.00,VWS V14.01,2013-03-02 21:59:00,
2013-03-02 17:00:00,33.3,22.5,29.75,WSW,244,5.0,13.0,64,0.00,,,0.00,VWS V14.01,2013-03-02 22:00:00,
2013-03-02 17:04:00,33.1,22.3,29.75,West,264,5.0,11.0,64,0.00,,,0.00,VWS V14.01,2013-03-02 22:04:00,
2013-03-02 17:09:00,33.0,22.2,29.75,West,272,0.0,11.0,64,0.00,,,0.00,VWS V14.01,2013-03-02 22:09:00,
2013-03-02 17:14:00,33.0,22.2,29.75,WNW,288,0.0,11.0,64,0.00,,,0.00,VWS V14.01,2013-03-02 22:14:00,
2013-03-02 17:15:00,33.0,22.2,29.75,West,281,0.0,11.0,64,0.00,,,0.00,VWS V14.01,2013-03-02 22:15:00,
2013-03-02 17:19:00,33.0,22.2,29.75,SW,219,4.0,9.0,64,0.00,,,0.00,VWS V14.01,2013-03-02 22:19:00,
2013-03-02 17:24:00,33.0,21.4,29.75,East,86,2.0,10.0,62,0.00,,,0.00,VWS V14.01,2013-03-02 22:24:00,
2013-03-02 17:29:00,33.0,21.4,29.75,SE,132,4.0,10.0,62,0.00,,,0.00,VWS V14.01,2013-03-02 22:29:00,
2013-03-02 17:30:00,33.0,21.4,29.76,East,96,6.0,10.0,62,0.00,,,0.00,VWS V14.01,2013-03-02 22:30:00,
2013-03-02 17:34:00,33.0,21.0,29.76,NE,55,6.0,12.0,61,0.00,,,0.00,VWS V14.01,2013-03-02 22:34:00,
2013-03-02 17:39:00,32.8,21.2,29.76,NE,42,0.0,12.0,62,0.00,,,0.00,VWS V14.01,2013-03-02 22:39:00,
2013-03-02 17:44:00,32.8,21.2,29.76,NNE,28,9.0,12.0,62,0.00,,,0.00,VWS V14.01,2013-03-02 22:44:00,
2013-03-02 17:45:00,32.8,21.2,29.76,NE,39,6.0,12.0,62,0.00,,,0.00,VWS V14.01,2013-03-02 22:45:00,
2013-03-02 17:49:00,32.7,21.1,29.76,ENE,63,2.0,9.0,62,0.00,,,0.00,VWS V14.01,2013-03-02 22:49:00,
2013-03-02 17:54:00,32.6,21.0,29.76,NE,45,0.0,10.0,62,0.00,,,0.00,VWS V14.01,2013-03-02 22:54:00,
2013-03-02 17:58:00,32.4,20.9,29.76,WSW,250,5.0,10.0,62,0.00,,,0.00,VWS V14.01,2013-03-02 22:58:00,
2013-03-02 18:00:00,32.4,20.9,29.77,WSW,250,0.0,10.0,62,0.00,,,0.00,VWS V14.01,2013-03-02 23:00:00,
2013-03-02 18:03:00,32.4,20.9,29.77,NE,44,5.0,8.0,62,0.00,,,0.00,VWS V14.01,2013-03-02 23:03:00,
2013-03-02 18:08:00,32.3,21.1,29.77,NE,34,0.0,8.0,63,0.00,,,0.00,VWS V14.01,2013-03-02 23:08:00,
2013-03-02 18:13:00,32.3,21.1,29.77,WSW,249,6.0,9.0,63,0.00,,,0.00,VWS V14.01,2013-03-02 23:13:00,
2013-03-02 18:15:00,32.3,21.1,29.77,NE,49,0.0,9.0,63,0.00,,,0.00,VWS V14.01,2013-03-02 23:15:00,
2013-03-02 18:18:00,32.3,21.5,29.77,WSW,246,5.0,6.0,64,0.00,,,0.00,VWS V14.01,2013-03-02 23:18:00,
2013-03-02 18:23:00,32.1,21.3,29.77,West,259,0.0,6.0,64,0.00,,,0.00,VWS V14.01,2013-03-02 23:23:00,
2013-03-02 18:28:00,32.1,21.3,29.77,NW,306,0.0,7.0,64,0.00,,,0.00,VWS V14.01,2013-03-02 23:28:00,
2013-03-02 18:30:00,32.1,21.3,29.77,NW,306,0.0,7.0,64,0.00,,,0.00,VWS V14.01,2013-03-02 23:30:00,
2013-03-02 18:33:00,32.0,21.6,29.77,West,265,0.0,7.0,65,0.00,,,0.00,VWS V14.01,2013-03-02 23:33:00,
2013-03-02 18:38:00,32.0,21.6,29.77,NE,41,5.0,7.0,65,0.00,,,0.00,VWS V14.01,2013-03-02 23:38:00,
2013-03-02 18:43:00,31.8,21.4,29.77,WNW,301,0.0,7.0,65,0.00,,,0.00,VWS V14.01,2013-03-02 23:43:00,
2013-03-02 18:45:00,31.8,21.4,29.78,WNW,301,0.0,7.0,65,0.00,,,0.00,VWS V14.01,2013-03-02 23:45:00,
2013-03-02 18:48:00,31.8,21.4,29.78,West,274,0.0,3.0,65,0.00,,,0.00,VWS V14.01,2013-03-02 23:48:00,
2013-03-02 18:53:00,31.8,21.8,29.78,West,273,0.0,3.0,66,0.00,,,0.00,VWS V14.01,2013-03-02 23:53:00,
2013-03-02 18:58:00,31.7,21.7,29.78,West,267,4.0,9.0,66,0.00,,,0.00,VWS V14.01,2013-03-02 23:58:00,
2013-03-02 19:00:00,31.7,21.7,29.78,WNW,294,0.0,9.0,66,0.00,,,0.00,VWS V14.01,2013-03-03 00:00:00,
2013-03-02 19:03:00,31.5,21.5,29.78,West,260,6.0,6.0,66,0.00,,,0.00,VWS V14.01,2013-03-03 00:03:00,
2013-03-02 19:08:00,31.4,21.7,29.78,West,275,0.0,8.0,67,0.00,,,0.00,VWS V14.01,2013-03-03 00:08:00,
2013-03-02 19:13:00,31.4,21.7,29.78,WNW,290,0.0,8.0,67,0.00,,,0.00,VWS V14.01,2013-03-03 00:13:00,
2013-03-02 19:15:00,31.4,22.1,29.78,SW,235,4.0,8.0,68,0.00,,,0.00,VWS V14.01,2013-03-03 00:15:00,
2013-03-02 19:18:00,31.2,21.9,29.78,WSW,242,9.0,10.0,68,0.00,,,0.00,VWS V14.01,2013-03-03 00:18:00,
2013-03-02 19:23:00,30.9,21.9,29.78,NE,50,1.0,10.0,69,0.00,,,0.00,VWS V14.01,2013-03-03 00:23:00,
2013-03-02 19:28:00,30.8,22.2,29.78,ENE,59,4.0,11.0,70,0.00,,,0.00,VWS V14.01,2013-03-03 00:28:00,
2013-03-02 19:30:00,30.8,22.2,29.78,NNE,28,0.0,11.0,70,0.00,,,0.00,VWS V14.01,2013-03-03 00:30:00,
2013-03-02 19:33:00,30.8,22.2,29.78,North,5,4.0,10.0,70,0.00,,,0.00,VWS V14.01,2013-03-03 00:33:00,
2013-03-02 19:38:00,30.6,22.0,29.78,ENE,72,5.0,11.0,70,0.00,,,0.00,VWS V14.01,2013-03-03 00:38:00,
2013-03-02 19:43:00,30.5,21.9,29.78,NE,46,0.0,11.0,70,0.00,,,0.00,VWS V14.01,2013-03-03 00:43:00,
2013-03-02 19:45:00,30.3,21.7,29.78,NNE,30,4.0,11.0,70,0.00,,,0.00,VWS V14.01,2013-03-03 00:45:00,
2013-03-02 19:48:00,30.3,22.0,29.78,ENE,73,0.0,8.0,71,0.00,,,0.00,VWS V14.01,2013-03-03 00:48:00,
2013-03-02 19:53:00,30.2,21.9,29.78,ENE,68,0.0,8.0,71,0.00,,,0.00,VWS V14.01,2013-03-03 00:53:00,
2013-03-02 19:58:00,30.2,22.3,29.78,SW,217,0.0,8.0,72,0.00,,,0.00,VWS V14.01,2013-03-03 00:58:00,
2013-03-02 20:00:00,30.2,22.3,29.78,West,263,6.0,8.0,72,0.00,,,0.00,VWS V14.01,2013-03-03 01:00:00,
2013-03-02 20:03:00,30.2,22.6,29.78,WNW,296,0.0,6.0,73,0.00,,,0.00,VWS V14.01,2013-03-03 01:03:00,
2013-03-02 20:08:00,30.2,22.9,29.78,WSW,244,0.0,6.0,74,0.00,,,0.00,VWS V14.01,2013-03-03 01:08:00,
2013-03-02 20:13:00,30.0,23.0,29.78,ENE,69,0.0,6.0,75,0.00,,,0.00,VWS V14.01,2013-03-03 01:13:00,
2013-03-02 20:15:00,30.0,23.0,29.79,ENE,69,0.0,6.0,75,0.00,,,0.00,VWS V14.01,2013-03-03 01:15:00,
2013-03-02 20:18:00,29.9,23.0,29.79,NNE,27,8.0,14.0,75,0.00,,,0.00,VWS V14.01,2013-03-03 01:18:00,
2013-03-02 20:23:00,29.7,22.4,29.79,NNE,33,9.0,14.0,74,0.00,,,0.00,VWS V14.01,2013-03-03 01:23:00,
2013-03-02 20:28:00,29.6,22.7,29.79,West,269,5.0,14.0,75,0.00,,,0.00,VWS V14.01,2013-03-03 01:28:00,
2013-03-02 20:30:00,29.6,22.7,29.79,WNW,292,0.0,14.0,75,0.00,,,0.00,VWS V14.01,2013-03-03 01:30:00,
2013-03-02 20:33:00,29.6,22.4,29.79,North,5,0.0,7.0,74,0.00,,,0.00,VWS V14.01,2013-03-03 01:33:00,
2013-03-02 20:38:00,29.6,22.0,29.79,ENE,63,0.0,11.0,73,0.00,,,0.00,VWS V14.01,2013-03-03 01:38:00,
2013-03-02 20:43:00,29.4,21.5,29.79,NNE,19,2.0,11.0,72,0.00,,,0.00,VWS V14.01,2013-03-03 01:43:00,
2013-03-02 20:45:00,29.4,21.5,29.79,NNW,338,0.0,11.0,72,0.00,,,0.00,VWS V14.01,2013-03-03 01:45:00,
2013-03-02 20:48:00,29.4,21.2,29.79,NNW,338,1.0,1.0,71,0.00,,,0.00,VWS V14.01,2013-03-03 01:48:00,
2013-03-02 20:53:00,29.4,20.8,29.79,NNW,330,1.0,7.0,70,0.00,,,0.00,VWS V14.01,2013-03-03 01:53:00,
2013-03-02 20:58:00,29.4,20.8,29.79,ESE,121,0.0,7.0,70,0.00,,,0.00,VWS V14.01,2013-03-03 01:58:00,
2013-03-02 21:00:00,29.3,20.8,29.79,SW,236,10.0,10.0,70,0.00,,,0.00,VWS V14.01,2013-03-03 02:00:00,
2013-03-02 21:03:00,29.3,20.1,29.79,North,360,0.0,10.0,68,0.00,,,0.00,VWS V14.01,2013-03-03 02:03:00,
2013-03-02 21:08:00,29.2,20.0,29.79,WNW,286,0.0,10.0,68,0.00,,,0.00,VWS V14.01,2013-03-03 02:08:00,
2013-03-02 21:13:00,29.0,19.8,29.79,WSW,246,6.0,10.0,68,0.00,,,0.00,VWS V14.01,2013-03-03 02:13:00,
2013-03-02 21:15:00,29.0,19.8,29.79,WSW,246,0.0,10.0,68,0.00,,,0.00,VWS V14.01,2013-03-03 02:15:00,
2013-03-02 21:18:00,29.0,19.8,29.79,North,5,0.0,6.0,68,0.00,,,0.00,VWS V14.01,2013-03-03 02:18:00,
2013-03-02 21:23:00,28.9,19.7,29.79,NNW,345,0.0,7.0,68,0.00,,,0.00,VWS V14.01,2013-03-03 02:23:00,
2013-03-02 21:28:00,28.9,19.7,29.79,NE,51,0.0,7.0,68,0.00,,,0.00,VWS V14.01,2013-03-03 02:28:00,
2013-03-02 21:30:00,28.9,19.7,29.79,NE,52,0.0,7.0,68,0.00,,,0.00,VWS V14.01,2013-03-03 02:30:00,
2013-03-02 21:33:00,28.9,19.7,29.79,NE,46,0.0,8.0,68,0.00,,,0.00,VWS V14.01,2013-03-03 02:33:00,
2013-03-02 21:42:00,28.7,19.5,29.79,North,9,0.0,0.0,68,0.00,,,0.00,VWS V14.01,2013-03-03 02:42:00,
2013-03-02 21:45:00,28.9,19.7,29.78,East,88,0.0,5.0,68,0.00,,,0.00,VWS V14.01,2013-03-03 02:45:00,
2013-03-02 21:47:00,28.7,19.5,29.79,NNW,336,0.0,7.0,68,0.00,,,0.00,VWS V14.01,2013-03-03 02:47:00,
2013-03-02 21:52:00,28.9,19.7,29.79,WNW,294,0.0,7.0,68,0.00,,,0.00,VWS V14.01,2013-03-03 02:52:00,
2013-03-02 21:57:00,28.7,19.5,29.79,WSW,253,0.0,7.0,68,0.00,,,0.00,VWS V14.01,2013-03-03 02:57:00,
2013-03-02 22:00:00,28.7,19.5,29.78,NE,49,7.0,9.0,68,0.00,,,0.00,VWS V14.01,2013-03-03 03:00:00,
2013-03-02 22:02:00,28.9,19.7,29.79,WSW,257,4.0,8.0,68,0.00,,,0.00,VWS V14.01,2013-03-03 03:02:00,
2013-03-02 22:07:00,28.7,19.5,29.79,NE,37,0.0,8.0,68,0.00,,,0.00,VWS V14.01,2013-03-03 03:07:00,
2013-03-02 22:12:00,28.9,19.7,29.79,North,350,0.0,8.0,68,0.00,,,0.00,VWS V14.01,2013-03-03 03:12:00,
2013-03-02 22:15:00,28.6,19.4,29.78,NNE,24,6.0,11.0,68,0.00,,,0.00,VWS V14.01,2013-03-03 03:15:00,
2013-03-02 22:17:00,28.9,19.7,29.78,WSW,254,0.0,1.0,68,0.00,,,0.00,VWS V14.01,2013-03-03 03:17:00,
2013-03-02 22:22:00,28.9,19.7,29.78,WSW,252,0.0,1.0,68,0.00,,,0.00,VWS V14.01,2013-03-03 03:22:00,
2013-03-02 22:27:00,28.9,19.7,29.78,West,273,0.0,10.0,68,0.00,,,0.00,VWS V14.01,2013-03-03 03:27:00,
2013-03-02 22:30:00,28.6,19.7,29.78,ENE,62,1.0,7.0,69,0.00,,,0.00,VWS V14.01,2013-03-03 03:30:00,
2013-03-02 22:32:00,28.7,19.5,29.78,NNE,14,0.0,1.0,68,0.00,,,0.00,VWS V14.01,2013-03-03 03:32:00,
2013-03-02 22:37:00,28.9,19.7,29.78,SSE,154,0.0,5.0,68,0.00,,,0.00,VWS V14.01,2013-03-03 03:37:00,
2013-03-02 22:42:00,28.9,19.7,29.78,ENE,61,0.0,5.0,68,0.00,,,0.00,VWS V14.01,2013-03-03 03:42:00,
2013-03-02 22:45:00,28.4,19.9,29.78,ENE,74,0.0,8.0,70,0.00,,,0.00,VWS V14.01,2013-03-03 03:45:00,
2013-03-02 22:47:00,28.9,19.7,29.78,East,88,1.0,1.0,68,0.00,,,0.00,VWS V14.01,2013-03-03 03:47:00,
2013-03-02 22:52:00,28.7,19.5,29.78,ENE,67,3.0,9.0,68,0.00,,,0.00,VWS V14.01,2013-03-03 03:52:00,
2013-03-02 22:57:00,28.7,19.5,29.78,ENE,61,2.0,9.0,68,0.00,,,0.00,VWS V14.01,2013-03-03 03:57:00,
2013-03-02 23:00:00,28.4,19.9,29.78,NW,326,5.0,8.0,70,0.00,,,0.00,VWS V14.01,2013-03-03 04:00:00,
2013-03-02 23:02:00,28.7,19.5,29.78,NW,305,3.0,7.0,68,0.00,,,0.00,VWS V14.01,2013-03-03 04:02:00,
2013-03-02 23:07:00,28.6,20.4,29.78,NNE,32,7.0,11.0,71,0.00,,,0.00,VWS V14.01,2013-03-03 04:07:00,
2013-03-02 23:12:00,28.6,19.4,29.78,ENE,69,8.0,11.0,68,0.00,,,0.00,VWS V14.01,2013-03-03 04:12:00,
2013-03-02 23:15:00,28.3,20.1,29.78,ENE,59,0.0,12.0,71,0.00,,,0.00,VWS V14.01,2013-03-03 04:15:00,
2013-03-02 23:17:00,28.6,19.4,29.78,NNW,347,0.0,6.0,68,0.00,,,0.00,VWS V14.01,2013-03-03 04:17:00,
2013-03-02 23:22:00,28.6,19.7,29.78,NE,49,0.0,6.0,69,0.00,,,0.00,VWS V14.01,2013-03-03 04:22:00,
2013-03-02 23:27:00,28.6,19.7,29.78,NNE,17,0.0,7.0,69,0.00,,,0.00,VWS V14.01,2013-03-03 04:27:00,
2013-03-02 23:30:00,28.1,19.9,29.78,North,355,6.0,11.0,71,0.00,,,0.00,VWS V14.01,2013-03-03 04:30:00,
2013-03-02 23:32:00,28.6,19.7,29.78,NNE,26,5.0,6.0,69,0.00,,,0.00,VWS V14.01,2013-03-03 04:32:00,
2013-03-02 23:37:00,28.6,20.1,29.78,NE,52,0.0,7.0,70,0.00,,,0.00,VWS V14.01,2013-03-03 04:37:00,
2013-03-02 23:42:00,28.6,20.1,29.78,NE,49,4.0,8.0,70,0.00,,,0.00,VWS V14.01,2013-03-03 04:42:00,
2013-03-02 23:45:00,28.0,19.5,29.78,West,281,0.0,7.0,70,0.00,,,0.00,VWS V14.01,2013-03-03 04:45:00,
2013-03-02 23:47:00,28.4,19.9,29.78,ESE,106,0.0,2.0,70,0.00,,,0.00,VWS V14.01,2013-03-03 04:47:00,
2013-03-02 23:52:00,28.4,19.9,29.78,NNE,23,6.0,8.0,70,0.00,,,0.00,VWS V14.01,2013-03-03 04:52:00,
2013-03-02 23:57:00,28.4,20.2,29.78,WSW,257,6.0,8.0,71,0.00,,,0.00,VWS V14.01,2013-03-03 04:57:00,